EW4036 Weather Reports


time (UTC)temp
C
wind
direction
speed
KPH
gust
KPH
rain 1hr
cm
rain 24hr
cm
rain mn
cm
humidity
%
barometer
mb
20260507073138 9 275 9.7 12.9 0.00 0.00 0.00 63 1013.9
20260507071541 8 297 3.2 6.4 0.00 0.00 0.00 66 1013.9
20260507070137 8 312 4.8 9.7 0.00 0.00 0.00 67 1013.8
20260507064548 7 313 3.2 9.7 0.00 0.00 0.00 72 1013.7
20260507063043 7 279 3.2 8.0 0.00 0.00 0.00 75 1013.7
20260507061543 6 290 3.2 8.0 0.00 0.00 0.00 77 1013.5
20260507060138 5 316 3.2 8.0 0.00 0.00 0.00 78 1013.4
20260507054539 5 280 4.8 8.0 0.00 0.00 0.00 79 1013.3
20260507053138 5 236 6.4 9.7 0.00 0.00 0.00 80 1013.3
20260507051544 4 248 4.8 8.0 0.00 0.00 0.00 80 1013.1
20260507050042 3 210 3.2 6.4 0.00 0.00 0.00 81 1013.1
20260507044548 3 202 3.2 6.4 0.00 0.00 0.00 82 1013.0
20260507043055 2 179 3.2 8.0 0.00 0.00 0.00 82 1012.9
20260507041543 2 164 1.6 4.8 0.00 0.00 0.00 81 1012.8
20260507040042 2 138 1.6 4.8 0.00 0.00 0.00 82 1012.7
20260507034541 2 138 3.2 6.4 0.00 0.00 0.00 81 1012.5
20260507033039 2 129 3.2 6.4 0.00 0.00 0.00 81 1012.4
20260507031546 2 108 0.0 4.8 0.00 0.00 0.00 82 1012.3
20260507030039 2 96 3.2 4.8 0.00 0.00 0.00 83 1012.2
20260507024547 2 82 1.6 3.2 0.00 0.00 0.00 82 1012.1
20260507023038 2 226 0.0 6.4 0.00 0.00 0.00 79 1012.1
20260507021540 3 103 0.0 3.2 0.00 0.00 0.00 78 1012.0
20260507020049 3 100 1.6 3.2 0.00 0.00 0.00 77 1011.9
20260507014544 3 90 1.6 3.2 0.00 0.00 0.00 75 1011.7
20260507013038 3 225 3.2 6.4 0.00 0.00 0.00 73 1011.8
20260507011546 4 88 3.2 8.0 0.00 0.00 0.00 72 1011.4
20260507010138 4 76 0.0 8.0 0.00 0.00 0.00 72 1011.5
20260507004544 4 92 0.0 3.2 0.00 0.00 0.00 72 1011.4
20260507003038 4 117 0.0 1.6 0.00 0.00 0.00 71 1011.4
20260507001606 4 118 0.0 4.8 0.00 0.00 0.00 70 1011.4
20260507000043 5 75 0.0 3.2 0.00 0.00 0.00 70 1011.4
20260506234551 5 69 1.6 4.8 0.00 0.00 0.00 69 1011.4
20260506233041 5 90 0.0 3.2 0.00 0.00 0.00 66 1011.4
20260506231543 6 89 0.0 3.2 0.00 0.00 0.00 65 1011.4
20260506230137 6 117 1.6 8.0 0.00 0.00 0.00 64 1011.3
20260506224541 6 107 3.2 8.0 0.00 0.00 0.00 63 1011.2
20260506223040 6 122 4.8 11.3 0.00 0.00 0.00 61 1011.2
20260506221551 7 108 6.4 11.3 0.00 0.00 0.00 60 1011.2
20260506220040 7 100 6.4 20.9 0.00 0.00 0.00 59 1011.1
20260506214549 7 124 6.4 16.1 0.00 0.00 0.00 58 1011.0
20260506213041 7 105 6.4 25.7 0.00 0.00 0.00 57 1011.0
20260506211541 7 101 11.3 17.7 0.00 0.00 0.00 57 1010.8
20260506210139 7 80 4.8 11.3 0.00 0.00 0.00 56 1010.8
20260506204545 7 98 9.7 17.7 0.00 0.00 0.00 55 1010.8
20260506203139 7 108 4.8 16.1 0.00 0.00 0.00 54 1010.8
20260506201541 7 69 4.8 14.5 0.00 0.00 0.00 51 1010.9
20260506200139 7 103 8.0 16.1 0.00 0.00 0.00 51 1010.8
20260506194541 7 95 4.8 12.9 0.00 0.00 0.00 48 1010.7
20260506193138 7 57 1.6 6.4 0.00 0.00 0.00 49 1010.6
20260506191543 9 33 0.0 3.2 0.00 0.00 0.00 46 1010.5
20260506190137 9 125 0.0 3.2 0.00 0.00 0.00 46 1010.4
20260506184546 11 13 0.0 4.8 0.00 0.00 0.00 41 1010.4
20260506183044 11 13 1.6 4.8 0.00 0.00 0.00 39 1010.3
20260506181548 11 14 3.2 8.0 0.00 0.00 0.00 39 1010.2
20260506180038 11 345 3.2 9.7 0.00 0.00 0.00 39 1010.2
20260506174539 11 325 6.4 11.3 0.00 0.00 0.00 38 1010.1
20260506173043 12 334 6.4 16.1 0.00 0.00 0.00 35 1010.1
20260506171541 12 321 9.7 16.1 0.00 0.00 0.00 33 1010.0
20260506170139 13 360 8.0 12.9 0.00 0.00 0.00 34 1010.0
20260506164555 13 342 8.0 19.3 0.00 0.00 0.00 33 1010.0
20260506163042 12 330 11.3 20.9 0.00 0.00 0.00 32 1009.9
20260506161546 13 292 11.3 20.9 0.00 0.00 0.00 31 1009.9
20260506160038 13 307 9.7 14.5 0.00 0.00 0.00 29 1009.8
20260506154543 13 119 3.2 6.4 0.00 0.00 0.00 27 1010.0
20260506153039 13 166 1.6 12.9 0.00 0.00 0.00 28 1009.9
20260506151541 13 113 8.0 16.1 0.00 0.00 0.00 26 1010.0
20260506150045 13 86 8.0 20.9 0.00 0.00 0.00 25 1010.1
20260506144540 13 90 4.8 12.9 0.00 0.00 0.00 25 1010.1
20260506143138 13 315 8.0 17.7 0.00 0.00 0.00 25 1010.3
20260506141637 13 174 6.4 12.9 0.00 0.00 0.00 25 1010.4
20260506140138 13 262 6.4 17.7 0.00 0.00 0.00 25 1010.5
20260506134637 13 67 1.6 17.7 0.00 0.00 0.00 25 1010.5
20260506133052 13 271 4.8 12.9 0.00 0.00 0.00 25 1010.7
20260506131542 13 169 11.3 19.3 0.00 0.00 0.00 25 1010.9
20260506130040 13 290 1.6 12.9 0.00 0.00 0.00 26 1010.9
20260506124542 12 110 4.8 14.5 0.00 0.00 0.00 25 1011.1
20260506123137 12 134 8.0 17.7 0.00 0.00 0.00 25 1011.2
20260506121540 12 231 0.0 20.9 0.00 0.00 0.00 27 1011.3
20260506120056 12 150 8.0 17.7 0.00 0.00 0.00 25 1011.4
20260506114544 12 202 9.7 19.3 0.00 0.00 0.00 25 1011.4
20260506113038 12 147 8.0 20.9 0.00 0.00 0.00 26 1011.7
20260506111544 12 82 9.7 20.9 0.00 0.00 0.00 27 1011.6
20260506110039 11 192 4.8 19.3 0.00 0.00 0.00 26 1011.6
20260506104553 12 142 14.5 24.1 0.00 0.00 0.00 27 1011.8
20260506103044 11 71 11.3 20.9 0.00 0.00 0.00 27 1012.0
20260506101540 11 188 6.4 24.1 0.00 0.00 0.00 30 1012.1
20260506100138 11 96 9.7 19.3 0.00 0.00 0.00 29 1012.2
20260506094545 11 99 11.3 19.3 0.00 0.00 0.00 28 1012.3
20260506093037 11 228 6.4 20.9 0.00 0.00 0.00 29 1012.3
20260506091539 11 92 6.4 14.5 0.00 0.00 0.00 29 1012.4
20260506090041 11 184 11.3 20.9 0.00 0.00 0.00 33 1012.4
20260506084612 10 200 6.4 14.5 0.00 0.00 0.00 37 1012.4
20260506083137 10 174 11.3 20.9 0.00 0.00 0.00 37 1012.4
20260506081552 10 98 3.2 14.5 0.00 0.00 0.00 34 1012.5
20260506080137 10 165 9.7 17.7 0.00 0.00 0.00 39 1012.6